Canadian, TX

8:48 PM CDT on October 19, 2019 (GMT -0500)
Hemphill County

Weather History for KHHF - September, 2019

Change the Weather History Date:

Monday, September 16, 2019

  Actual Average (KPPA) Record (KPPA)
Temperature  
Mean Temperature 80 °F -  
Max Temperature 94 °F 81 °F 98 °F (1965)
Min Temperature 67 °F 57 °F 45 °F (1973)
Cooling Degree Days 16    
Growing Degree Days 30 (Base 50)    
Moisture  
Dew Point 60 °F    
Average Humidity 50    
Maximum Humidity 82    
Minimum Humidity 28    
Precipitation  
Precipitation 0.00 in - - ()
Sea Level Pressure  
Sea Level Pressure 30.06 in    
Wind  
Wind Speed 12 mph (South)    
Max Wind Speed 21 mph    
Max Gust Speed 29 mph    
Visibility 10 miles    
Events      
Averages and records for this station are not official NWS values.
T = Trace of Precipitation, MM = Missing Value Source: NWS Daily Summary

Daily Weather History Graph

Daily Weather History Graph

Search for Another Location

Airport or City:

Astronomy

Sep. 16, 2019 Rise Set
Actual Time 7:24 AM CDT 7:47 PM CDT
Civil Twilight 6:59 AM CDT 8:13 PM CDT
Nautical Twilight 6:29 AM CDT 8:43 PM CDT
Astronomical Twilight 5:58 AM CDT 9:13 PM CDT
Moon 9:27 PM CDT (9/16) 9:30 AM CDT (9/16)
Length of Visible Light 13h 14m
Length of Day
12h 22m
Waning Gibbous, 94% of the Moon is Illuminated
Sep 16
Waning Gibbous
Sep 21
Last Quarter
Sep 28
New
Oct 5
First Quarter
Oct 13
Full

Hourly Weather History & Observations

Time (CDT) Temp. Heat Index Dew Point Humidity Pressure Visibility Wind Dir Wind Speed Gust Speed Precip Events Conditions
12:15 AM 76.6 °F - 58.5 °F 53% 30.09 in 10.0 mi South 10.4 mph - N/A   Clear
12:35 AM 76.3 °F - 59.2 °F 55% 30.09 in 10.0 mi South 11.5 mph - N/A   Clear
1:15 AM 75.2 °F - 60.1 °F 59% 30.09 in 10.0 mi South 9.2 mph - N/A   Clear
1:35 AM 75.2 °F - 60.8 °F 61% 30.10 in 10.0 mi South 10.4 mph - N/A   Clear
1:55 AM 75.2 °F - 61.7 °F 63% 30.10 in 10.0 mi South 9.2 mph - N/A   Clear
2:15 AM 75.2 °F - 62.1 °F 64% 30.10 in 10.0 mi South 11.5 mph 16.1 mph N/A   Clear
2:35 AM 75.2 °F - 62.8 °F 65% 30.10 in 10.0 mi South 10.4 mph 17.3 mph N/A   Clear
2:55 AM 75.2 °F - 63.3 °F 66% 30.10 in 10.0 mi South 10.4 mph - N/A   Clear
3:15 AM 75.2 °F - 62.8 °F 65% 30.10 in 10.0 mi South 11.5 mph 16.1 mph N/A   Clear
3:35 AM 75.2 °F - 62.8 °F 65% 30.10 in 10.0 mi South 15.0 mph 18.4 mph N/A   Clear
3:55 AM 75.2 °F - 63.1 °F 66% 30.10 in 10.0 mi South 11.5 mph - N/A   Clear
4:15 AM 75.0 °F - 62.8 °F 66% 30.09 in 10.0 mi South 13.8 mph 17.3 mph N/A   Clear
4:35 AM 75.2 °F - 62.8 °F 65% 30.09 in 10.0 mi South 12.7 mph - N/A   Clear
4:55 AM 74.3 °F - 62.2 °F 66% 30.09 in 10.0 mi South 10.4 mph 18.4 mph N/A   Clear
5:15 AM 73.8 °F - 62.6 °F 68% 30.09 in 10.0 mi South 12.7 mph - N/A   Clear
5:35 AM 73.4 °F - 62.2 °F 68% 30.09 in 10.0 mi SSW 10.4 mph - N/A   Clear
5:55 AM 70.2 °F - 62.1 °F 75% 30.09 in 10.0 mi SW 6.9 mph - N/A   Clear
6:15 AM 70.0 °F - 62.6 °F 77% 30.09 in 10.0 mi SW 5.8 mph - N/A   Clear
6:55 AM 70.0 °F - 61.7 °F 75% 30.10 in 10.0 mi SW 9.2 mph - N/A   Clear
7:15 AM 70.7 °F - 61.7 °F 73% 30.10 in 10.0 mi South 10.4 mph - N/A   Clear
7:35 AM 70.0 °F - 61.7 °F 75% 30.11 in 10.0 mi SSW 4.6 mph - N/A   Clear
7:55 AM 67.5 °F - 61.7 °F 82% 30.11 in 10.0 mi WSW 4.6 mph - N/A   Clear
8:15 AM 68.4 °F - 61.7 °F 79% 30.12 in 10.0 mi WSW 5.8 mph - N/A   Clear
8:55 AM 72.0 °F - 61.9 °F 70% 30.12 in 10.0 mi SSW 5.8 mph - N/A   Clear
9:15 AM 75.2 °F - 61.9 °F 63% 30.12 in 10.0 mi SSW 8.1 mph - N/A   Clear
9:35 AM 77.7 °F - 61.2 °F 57% 30.12 in 10.0 mi SSW 13.8 mph - N/A   Clear
9:55 AM 80.4 °F 81.3 °F 61.0 °F 51% 30.12 in 10.0 mi SSW 12.7 mph - N/A   Clear
10:15 AM 83.8 °F 83.8 °F 60.1 °F 44% 30.12 in 10.0 mi SSW 15.0 mph - N/A   Clear
10:35 AM 86.4 °F 85.9 °F 59.7 °F 40% 30.12 in 10.0 mi SW 13.8 mph - N/A   Clear
10:55 AM 87.6 °F 86.9 °F 59.2 °F 38% 30.12 in 10.0 mi SSW 16.1 mph 23.0 mph N/A   Clear
11:15 AM 88.0 °F 86.9 °F 58.3 °F 36% 30.11 in 10.0 mi SSW 16.1 mph 21.9 mph N/A   Clear
11:35 AM 89.1 °F 88.0 °F 58.5 °F 35% 30.11 in 10.0 mi SSW 19.6 mph 25.3 mph N/A   Clear
11:55 AM 89.1 °F 88.0 °F 58.5 °F 35% 30.10 in 10.0 mi South 15.0 mph 24.2 mph N/A   Clear
12:15 PM 90.5 °F 89.5 °F 58.8 °F 34% 30.09 in 10.0 mi SW 15.0 mph 20.7 mph N/A   Clear
12:35 PM 90.5 °F 89.3 °F 58.1 °F 33% 30.09 in 10.0 mi SW 15.0 mph 19.6 mph N/A   Clear
12:55 PM 91.2 °F 90.2 °F 58.1 °F 33% 30.08 in 10.0 mi SSW 17.3 mph 24.2 mph N/A   Clear
1:15 PM 90.7 °F 89.2 °F 57.2 °F 32% 30.07 in 10.0 mi SW 11.5 mph 21.9 mph N/A   Clear
1:35 PM 92.1 °F 90.8 °F 57.4 °F 31% 30.06 in 10.0 mi South 16.1 mph 23.0 mph N/A   Clear
1:55 PM 92.5 °F 90.7 °F 55.6 °F 29% 30.05 in 10.0 mi South 18.4 mph 25.3 mph N/A   Clear
2:15 PM 93.0 °F 91.7 °F 57.0 °F 30% 30.05 in 10.0 mi South 9.2 mph 24.2 mph N/A   Clear
2:35 PM 92.8 °F 91.4 °F 57.0 °F 30% 30.04 in 10.0 mi South 13.8 mph 25.3 mph N/A   Clear
2:55 PM 93.2 °F 91.3 °F 55.4 °F 28% 30.03 in 10.0 mi South 18.4 mph 26.5 mph N/A   Clear
3:15 PM 94.8 °F 93.4 °F 57.0 °F 28% 30.02 in 10.0 mi SSW 13.8 mph 19.6 mph N/A   Clear
3:35 PM 92.5 °F 91.0 °F 56.7 °F 30% 30.02 in 10.0 mi South 18.4 mph 24.2 mph N/A   Scattered Clouds
3:55 PM 92.5 °F 91.0 °F 57.2 °F 30% 30.01 in 10.0 mi SSE 17.3 mph 26.5 mph N/A   Scattered Clouds
4:15 PM 91.2 °F 89.6 °F 56.7 °F 31% 30.01 in 10.0 mi South 17.3 mph 25.3 mph N/A   Clear
4:35 PM 90.5 °F 88.7 °F 56.3 °F 31% 30.01 in 10.0 mi South 18.4 mph 27.6 mph N/A   Clear
4:55 PM 91.8 °F 90.3 °F 56.8 °F 31% 30.00 in 10.0 mi SSE 20.7 mph 26.5 mph N/A   Clear
5:15 PM 90.7 °F 89.5 °F 58.1 °F 33% 30.00 in 10.0 mi South 18.4 mph 28.8 mph N/A   Clear
5:35 PM 90.9 °F 89.7 °F 58.3 °F 33% 29.99 in 10.0 mi South 17.3 mph 25.3 mph N/A   Clear
5:55 PM 88.5 °F 87.3 °F 57.7 °F 35% 29.99 in 10.0 mi South 16.1 mph 25.3 mph N/A   Clear
6:15 PM 87.8 °F 86.9 °F 58.3 °F 37% 29.99 in 10.0 mi South 16.1 mph 25.3 mph N/A   Clear
6:35 PM 87.8 °F 86.7 °F 58.1 °F 36% 29.98 in 10.0 mi South 20.7 mph 24.2 mph N/A   Clear
6:55 PM 88.0 °F 86.9 °F 57.6 °F 36% 29.99 in 10.0 mi South 17.3 mph 23.0 mph N/A   Clear
7:15 PM 87.8 °F 86.7 °F 58.1 °F 36% 29.99 in 10.0 mi South 16.1 mph 24.2 mph N/A   Clear
7:35 PM 86.2 °F 85.2 °F 57.6 °F 38% 29.99 in 10.0 mi South 12.7 mph 18.4 mph N/A   Clear
7:55 PM 85.1 °F 84.4 °F 57.9 °F 40% 29.99 in 10.0 mi South 12.7 mph 18.4 mph N/A   Clear
8:15 PM 83.8 °F 83.3 °F 58.1 °F 41% 29.99 in 10.0 mi South 9.2 mph - N/A   Clear
8:35 PM 83.1 °F 82.9 °F 58.5 °F 43% 29.99 in 10.0 mi SSE 9.2 mph 16.1 mph N/A   Clear
8:55 PM 82.0 °F 82.1 °F 58.8 °F 45% 30.00 in 10.0 mi SSE 9.2 mph - N/A   Clear
9:15 PM 80.6 °F 81.1 °F 59.2 °F 48% 30.00 in 10.0 mi SSE 8.1 mph - N/A   Clear
9:35 PM 79.9 °F - 60.1 °F 51% 30.01 in 10.0 mi SSE 9.2 mph - N/A   Clear
9:55 PM 80.2 °F 81.2 °F 61.0 °F 52% 30.01 in 10.0 mi SSE 13.8 mph 17.3 mph N/A   Clear
10:15 PM 80.2 °F 81.3 °F 61.7 °F 53% 30.01 in 10.0 mi SSE 12.7 mph 18.4 mph N/A   Clear
10:35 PM 79.7 °F - 62.1 °F 55% 30.02 in 10.0 mi SSE 13.8 mph 21.9 mph N/A   Clear
10:55 PM 79.0 °F - 62.2 °F 56% 30.02 in 10.0 mi South 12.7 mph - N/A   Clear
11:15 PM 79.0 °F - 63.0 °F 58% 30.02 in 10.0 mi SSE 12.7 mph 20.7 mph N/A   Clear
11:35 PM 78.3 °F - 63.1 °F 60% 30.02 in 10.0 mi SSE 11.5 mph - N/A   Clear
11:55 PM 77.5 °F - 63.3 °F 61% 30.02 in 10.0 mi South 11.5 mph - N/A   Clear